TimeCDT,TemperatureF,Dew PointF,Humidity,Sea Level PressureIn,VisibilityMPH,Wind Direction,Wind SpeedMPH,Gust SpeedMPH,PrecipitationIn,Events,Conditions,WindDirDegrees,DateUTC
12:53 AM,75.9,71.1,85,30.03,10.0,SSE,8.1,-,N/A,,Clear,160,2013-06-21 05:53:00
1:53 AM,75.9,71.1,85,30.03,10.0,SSE,6.9,-,N/A,,Clear,150,2013-06-21 06:53:00
2:53 AM,73.9,70.0,87,30.03,10.0,SSE,6.9,-,N/A,,Clear,160,2013-06-21 07:53:00
3:53 AM,73.9,70.0,87,30.01,10.0,South,6.9,-,N/A,,Clear,180,2013-06-21 08:53:00
4:53 AM,73.0,70.0,90,30.02,10.0,South,8.1,-,N/A,,Clear,170,2013-06-21 09:53:00
5:53 AM,73.9,70.0,87,30.03,10.0,South,8.1,-,N/A,,Clear,180,2013-06-21 10:53:00
6:53 AM,73.0,70.0,90,30.04,10.0,SSE,5.8,-,N/A,,Clear,160,2013-06-21 11:53:00
7:53 AM,77.0,71.1,82,30.05,10.0,South,11.5,-,N/A,,Clear,190,2013-06-21 12:53:00
8:53 AM,80.1,71.1,74,30.06,10.0,South,15.0,-,N/A,,Clear,190,2013-06-21 13:53:00
9:53 AM,82.9,71.1,67,30.06,10.0,South,13.8,-,N/A,,Clear,190,2013-06-21 14:53:00
10:53 AM,84.9,70.0,61,30.06,10.0,South,16.1,-,N/A,,Clear,180,2013-06-21 15:53:00
11:53 AM,87.1,71.1,59,30.06,10.0,South,17.3,21.9,N/A,,Clear,190,2013-06-21 16:53:00
12:53 PM,88.0,70.0,55,30.05,10.0,South,13.8,-,N/A,,Partly Cloudy,190,2013-06-21 17:53:00
1:53 PM,90.0,71.1,54,30.04,10.0,South,13.8,21.9,N/A,,Clear,170,2013-06-21 18:53:00
2:53 PM,90.0,69.1,50,30.03,10.0,South,13.8,20.7,N/A,,Partly Cloudy,190,2013-06-21 19:53:00
3:53 PM,90.0,70.0,52,30.01,10.0,South,13.8,-,N/A,,Partly Cloudy,180,2013-06-21 20:53:00
4:53 PM,90.0,69.1,50,30.00,10.0,South,15.0,-,N/A,,Clear,190,2013-06-21 21:53:00
5:53 PM,88.0,70.0,55,29.99,10.0,South,13.8,-,N/A,,Clear,170,2013-06-21 22:53:00
6:53 PM,86.0,69.1,57,29.99,10.0,South,10.4,-,N/A,,Clear,180,2013-06-21 23:53:00
7:53 PM,82.9,70.0,65,29.99,10.0,South,6.9,-,N/A,,Partly Cloudy,180,2013-06-22 00:53:00
8:53 PM,80.1,70.0,71,29.99,10.0,South,5.8,-,N/A,,Clear,180,2013-06-22 01:53:00
9:53 PM,78.1,70.0,76,29.99,10.0,SSE,6.9,-,N/A,,Clear,160,2013-06-22 02:53:00
10:53 PM,75.9,69.1,79,30.00,10.0,South,6.9,-,N/A,,Clear,190,2013-06-22 03:53:00
11:53 PM,73.9,69.1,85,30.00,10.0,South,6.9,-,N/A,,Clear,180,2013-06-22 04:53:00